Retour au catalogue

STARLINK-38135

ActifCommunicationsSSO
NORAD 100122·PAYLOAD·🇺🇸 United States

Lancé Jul 21, 2026 depuis Vandenberg Space Force Base

Loading…

Prochains Passages (prochaines 24 heures)

TLE

FraisSource: Space-Track

Époque: Sep 14, 2026, 00:36 UTC

1 A0122U 26166X   26257.02515235  .00001698  00000-0  12251-4 0  9990
2 A0122  97.2834 275.0473 0001183  88.0389 272.1012 15.75183299  8583

Suivez STARLINK-38135 en temps réel avec AllMySat

Download on the App Store